Vertical_Velocity
1 -1 -6 1 6 -2 7 2 1 2 2 2 -6 5 4 5 10 -7 1 -1 -2 3 -0 0 -2 -3 -4 -1 0 0 0 -1 -1 -1 -1 0 -1 -2 -1 0 -0 -1 -0 -1
-2 -1 4 -0 -3 2 5 1 2 4 1 2 -1 -3 6 -2 -0 -0 3 -4 -1 -0 0 1 -1 -2 -1 -2 -3 -1 -2 -1 -1 -1 1 -0 -1 -1 1 -0 -1 0 -0 0
-1 -3 -1 1 -2 -0 -3 -3 -1 4 2 3 -0 5 4 -0 1 1 -22 3 -3 -1 4 2 2 0 -2 -1 -0 -1 -1 -1 0 0 0 -0 0 0 -0 -1 -1 -0 -1 -1
-2 0 -2 3 -3 1 3 1 3 1 7 -9 1 -8 -0 2 3 -3 -1 -6 -1 1 1 0 1 1 1 -2 -1 -1 -1 -1 -1 0 0 0 1 1 0 -0 -1 -2 -2 -1
1 2 0 -1 4 3 -5 3 3 5 5 1 1 4 -2 1 -9 -1 -0 -2 -1 1 1 1 2 1 -1 -2 -1 -1 -0 -0 0 -0 0 1 1 1 0 -0 -0 -1 -2 -1
2 -1 4 1 0 2 -1 -4 5 9 10 4 -2 2 -16 -11 -3 -3 -2 -2 -2 -1 1 1 -1 -4 -2 -1 0 1 1 1 0 0 1 1 0 0 -0 -0 -0 -0 -1 -2
2 0 -1 -7 3 1 -4 7 -1 -4 -3 -7 -1 -1 -22 -1 -7 -6 -0 2 3 1 -1 -1 -2 -1 1 1 1 1 1 0 0 -0 0 0 -1 -1 -1 -1 1 0 -2 -3
-1 2 3 -2 -8 2 2 3 -4 -5 -3 -3 2 -8 -32 -5 -6 -1 -4 -3 -1 -1 -2 0 0 0 -0 0 -0 -1 -1 -1 0 -0 -1 -0 -0 -1 0 1 -1 -0 1 1
2 -3 0 5 4 2 0 1 2 0 1 -0 -3 -4 -10 0 -4 -6 -4 -4 0 -2 0 3 0 -0 0 0 -0 0 0 0 -1 -1 -1 -2 -0 1 0 -0 -0 -1 -1 -1
0 -0 -2 2 -1 1 -2 5 -0 3 -5 -1 -2 -4 -17 -8 -4 -2 -5 -3 -2 0 -2 -1 -0 1 2 1 0 -0 -1 -2 -2 -1 0 1 -1 -2 -2 -1 -1 -0 -1 -1
-1 0 -1 3 -1 -2 -2 -4 4 1 -0 -5 -2 -8 -2 2 -5 -2 -1 1 2 0 2 2 3 2 -1 -2 -1 -2 -1 -0 1 1 -1 -1 -1 -1 -2 -2 -2 -1 -0 0
2 -1 1 -4 0 7 -5 -3 1 4 -2 -0 0 -21 2 -1 0 1 2 1 1 1 1 1 -1 -3 -2 -1 0 1 1 2 -0 -0 1 1 -0 -0 0 0 -0 -0 -0 0
-2 2 -1 3 0 -4 -1 1 2 -2 3 -4 -1 -12 1 1 2 2 2 2 1 0 -2 -2 -2 2 1 -0 0 1 1 1 2 1 1 1 1 -0 -1 -1 -0 -1 -0 0
-1 -2 -0 -10 -1 -0 -3 -2 5 5 5 -11 -14 -22 -5 -3 -2 -1 -1 -1 0 -0 -0 0 -2 2 2 4 3 3 3 3 2 1 -0 -1 -1 -1 -0 0 1 1 -0 2
2 -2 -1 0 3 -2 -1 -1 1 -4 5 -1 -9 -10 -14 6 3 4 0 1 -1 1 0 3 3 3 2 2 2 2 2 0 -1 1 1 1 0 0 -0 -1 -0 0 -1 -1
-1 -1 -0 -5 -0 2 -4 -1 -1 -3 -3 -10 4 -46 25 12 -4 -4 2 1 -0 1 3 3 1 0 1 1 2 1 1 2 2 2 3 -1 -1 -0 1 -2 -0 -3 -0 -2
0 1 -1 -3 1 1 -8 -5 2 3 1 9 -14 0 3 4 5 5 -1 -4 -1 1 3 2 3 4 3 3 2 3 1 0 2 -1 2 2 1 2 2 3 2 1 -0 -1
2 3 2 -1 0 -2 1 0 -0 -1 1 0 -6 -0 3 2 -3 -7 -1 -1 -1 0 -3 -2 -1 -2 0 -2 2 1 2 0 1 -1 -1 -1 -2 -2 -1 -1 -1 -1 -1 -1
5 6 1 -1 -1 -6 -7 -3 1 1 -7 2 -4 12 -1 -2 -5 -3 5 -2 -3 -4 -3 -1 4 6 3 3 1 -1 -0 -1 -1 -2 -3 -3 -3 -3 -1 0 0 0 -0 -0
2 3 4 3 0 -3 -2 1 -1 1 -28 2 -1 -0 1 2 -5 17 -8 -1 -1 3 7 4 -1 -5 -5 -6 -4 0 1 0 -1 -1 0 2 2 2 1 -0 -1 -1 0 0
2 1 -8 4 1 -8 -6 2 3 3 -6 -1 -2 -2 1 1 -5 -2 -1 1 1 1 1 3 2 6 8 1 2 1 0 2 -1 1 1 0 -0 -0 -2 -1 0 -0 -0 -0
1 6 -3 7 0 -17 -2 -2 -2 2 1 1 -2 -2 -3 -4 -1 -0 -2 -1 -1 -0 0 1 2 4 2 2 2 1 2 0 2 1 0 1 0 -0 0 -0 -1 -0 0 -0
-6 -6 1 -6 -5 1 4 1 -3 -3 -1 3 4 -2 -6 -2 2 -3 0 -0 -4 -4 -2 0 -0 -0 1 1 -0 1 2 2 3 2 1 0 1 1 -0 -2 -2 -0 -1 0
-6 7 -5 4 -1 -7 2 4 5 5 1 3 -1 -2 0 0 -2 -4 -3 -2 -3 -3 -4 -4 -3 -0 1 1 1 1 -0 1 1 1 1 -1 -3 -2 -0 1 1 1 -2 -2
7 0 1 -10 -12 -11 5 3 11 11 7 5 -1 -3 -1 -1 1 2 1 0 2 2 -3 -2 -4 -2 -1 -2 1 2 3 1 -1 -5 -5 -2 1 2 2 1 0 0 -2 -0
-5 -7 -9 -21 -10 3 -2 7 6 2 3 3 4 4 2 -1 -2 -2 1 1 -1 4 4 1 3 1 1 3 5 2 -1 2 1 2 3 4 4 2 0 2 4 0 1 -2
Height
3077 3079 3080 3083 3085 3088 3089 3091 3093 3097 3100 3103 3106 3111 3114 3118 3121 3128 3132 3136 3140 3143 3145 3146 3149 3151 3152 3154 3155 3156 3157 3159 3160 3161 3162 3162 3162 3162 3161 3160 3158 3157 3154 3151
3077 3076 3078 3080 3083 3085 3088 3090 3093 3097 3099 3102 3104 3109 3112 3116 3120 3125 3131 3134 3137 3139 3141 3143 3145 3147 3149 3150 3151 3152 3153 3154 3156 3157 3158 3158 3158 3158 3157 3155 3154 3152 3150 3147
3074 3075 3076 3078 3081 3083 3086 3088 3093 3097 3097 3101 3104 3108 3110 3113 3117 3121 3126 3129 3132 3136 3138 3139 3141 3144 3145 3146 3147 3148 3149 3151 3152 3153 3154 3154 3154 3153 3153 3151 3150 3148 3146 3144
3075 3074 3075 3077 3079 3082 3085 3088 3093 3097 3098 3099 3102 3106 3105 3109 3113 3117 3121 3124 3128 3130 3132 3134 3137 3139 3141 3141 3143 3144 3146 3147 3148 3149 3149 3149 3149 3149 3148 3147 3146 3144 3142 3140
3077 3076 3077 3078 3080 3082 3085 3088 3092 3096 3098 3099 3102 3105 3102 3106 3107 3110 3115 3120 3123 3125 3128 3130 3133 3134 3135 3137 3138 3139 3141 3142 3144 3144 3145 3145 3144 3144 3144 3143 3142 3140 3137 3135
3077 3077 3078 3079 3081 3082 3084 3089 3093 3095 3097 3099 3101 3103 3098 3099 3101 3109 3112 3115 3119 3120 3123 3125 3127 3128 3130 3132 3133 3135 3136 3138 3138 3139 3140 3140 3140 3140 3139 3138 3137 3134 3131 3128
3080 3079 3079 3080 3082 3083 3086 3088 3093 3099 3099 3097 3094 3096 3091 3096 3100 3104 3108 3111 3114 3115 3117 3120 3122 3124 3126 3127 3129 3130 3131 3132 3133 3134 3135 3135 3135 3135 3134 3133 3131 3129 3127 3124
3081 3081 3080 3080 3082 3084 3085 3086 3088 3096 3099 3091 3092 3087 3085 3092 3096 3097 3099 3103 3106 3109 3112 3114 3116 3118 3120 3122 3123 3125 3126 3127 3128 3129 3130 3130 3130 3129 3128 3127 3126 3123 3121 3119
3082 3081 3081 3081 3082 3085 3084 3087 3089 3088 3089 3091 3088 3085 3086 3087 3089 3092 3095 3096 3098 3102 3105 3107 3110 3112 3114 3116 3118 3119 3120 3121 3122 3124 3124 3125 3124 3124 3123 3122 3120 3117 3115 3113
3081 3081 3081 3081 3082 3084 3085 3087 3090 3086 3092 3093 3083 3082 3081 3083 3085 3086 3088 3091 3093 3095 3097 3100 3103 3106 3108 3109 3111 3113 3114 3116 3117 3118 3119 3119 3119 3118 3117 3115 3112 3110 3108 3107
3080 3080 3082 3082 3081 3082 3086 3087 3086 3086 3084 3084 3088 3076 3075 3076 3079 3080 3081 3084 3086 3089 3092 3095 3098 3099 3101 3103 3105 3107 3109 3111 3112 3113 3113 3113 3112 3110 3109 3108 3106 3104 3103 3101
3078 3078 3078 3081 3081 3081 3081 3083 3084 3084 3082 3081 3080 3075 3072 3072 3073 3074 3077 3078 3080 3083 3086 3089 3091 3093 3096 3098 3099 3101 3103 3104 3106 3106 3106 3105 3105 3105 3104 3102 3101 3099 3097 3096
3077 3076 3077 3078 3081 3079 3077 3077 3078 3079 3079 3077 3079 3073 3070 3070 3071 3072 3074 3075 3076 3077 3080 3083 3085 3088 3090 3091 3093 3095 3097 3098 3099 3100 3100 3100 3099 3098 3097 3095 3094 3093 3092 3090
3074 3073 3073 3072 3071 3073 3073 3073 3073 3073 3072 3072 3067 3070 3070 3070 3070 3070 3072 3073 3073 3074 3076 3078 3080 3081 3083 3085 3086 3088 3090 3092 3093 3093 3093 3093 3092 3091 3090 3089 3087 3086 3085 3083
3071 3069 3069 3069 3069 3068 3068 3068 3068 3066 3066 3064 3063 3063 3063 3067 3067 3067 3067 3067 3069 3070 3070 3071 3072 3075 3077 3079 3081 3083 3084 3085 3086 3086 3086 3086 3085 3084 3083 3082 3081 3080 3080 3078
3067 3067 3065 3063 3064 3063 3061 3061 3060 3060 3059 3056 3057 3054 3057 3060 3061 3063 3063 3062 3064 3065 3066 3067 3069 3070 3072 3073 3075 3076 3077 3078 3079 3079 3079 3079 3078 3077 3076 3076 3075 3074 3074 3073
3064 3063 3063 3060 3059 3058 3056 3049 3050 3050 3050 3051 3050 3044 3049 3052 3054 3055 3055 3054 3056 3058 3060 3061 3063 3064 3065 3067 3068 3068 3069 3070 3071 3071 3072 3072 3071 3071 3070 3069 3069 3068 3067 3066
3059 3060 3061 3057 3058 3057 3045 3044 3044 3044 3044 3043 3043 3042 3043 3043 3044 3045 3046 3046 3048 3050 3052 3053 3055 3056 3058 3058 3060 3061 3062 3063 3063 3064 3064 3064 3064 3065 3064 3064 3063 3062 3061 3060
3054 3056 3055 3055 3052 3045 3042 3042 3042 3041 3040 3040 3036 3038 3037 3036 3035 3036 3035 3038 3039 3040 3043 3045 3048 3049 3049 3050 3051 3052 3053 3055 3056 3056 3057 3057 3057 3058 3058 3057 3057 3056 3055 3054
3046 3049 3053 3049 3048 3044 3040 3038 3038 3037 3035 3033 3033 3032 3031 3030 3030 3032 3030 3030 3031 3032 3033 3035 3037 3038 3040 3042 3044 3045 3046 3047 3048 3049 3050 3050 3050 3050 3050 3050 3050 3049 3048 3047
3041 3042 3042 3044 3042 3036 3036 3035 3033 3035 3035 3030 3030 3030 3029 3028 3028 3027 3026 3027 3027 3027 3028 3029 3030 3032 3034 3034 3035 3036 3037 3039 3040 3041 3042 3043 3043 3043 3043 3043 3042 3041 3040 3039
3035 3036 3035 3036 3038 3033 3029 3030 3032 3030 3028 3027 3026 3025 3025 3026 3025 3024 3024 3024 3024 3024 3024 3024 3025 3026 3027 3028 3028 3029 3031 3032 3033 3034 3035 3036 3035 3035 3035 3034 3034 3033 3032 3030
3028 3029 3030 3030 3027 3026 3026 3026 3026 3025 3025 3024 3022 3021 3021 3020 3019 3019 3018 3017 3017 3018 3018 3019 3019 3019 3020 3020 3021 3023 3025 3026 3027 3027 3027 3027 3027 3027 3026 3026 3025 3024 3022 3021
3021 3022 3019 3022 3020 3021 3021 3020 3020 3019 3018 3017 3016 3015 3014 3013 3012 3012 3012 3011 3010 3010 3010 3011 3012 3013 3013 3014 3015 3016 3018 3019 3019 3020 3020 3020 3019 3017 3017 3017 3016 3015 3014 3012
3012 3014 3011 3007 3011 3013 3011 3012 3013 3011 3009 3008 3008 3007 3006 3005 3005 3004 3004 3004 3003 3002 3002 3003 3005 3005 3006 3007 3008 3009 3010 3010 3010 3010 3009 3009 3009 3009 3009 3008 3008 3007 3005 3004
2996 2999 3002 2995 3003 3000 3000 3002 3001 3000 3000 2999 2998 2997 2997 2996 2996 2996 2996 2996 2996 2995 2995 2995 2996 2996 2997 2999 2999 2999 2999 3000 2999 2999 3000 3000 3000 3000 3000 3001 3000 2998 2998 2996